Tracking 27401 objects as of 3-Jun-2023
HD Live streaming from Space Station
objects crossing your sky now

COSMOS 1410

Track COSMOS 1410 now!
10-day predictions
COSMOS 1410 is classified as:


NORAD ID: 13589
Int'l Code: 1982-096A
Perigee: 1,499.7 km
Apogee: 1,508.2 km
Inclination: 82.6 °
Period: 115.9 minutes
Semi major axis: 7874 km
RCS: 11.571 m2 (large)
Launch date: September 24, 1982
Source: Commonwealth of Independent States (former USSR) (CIS)
Launch site: PLESETSK MISSILE AND SPACE COMPLEX (PKMTR)
Your satellite tracking list
Your tracking list is empty




NASA's NSSDC Master Catalog

Two Line Element Set (TLE):
1 13589U 82096A   23153.85925997  .00000005  00000-0 -32847-4 0  9993
2 13589  82.6106  71.8962 0005393 206.9534 213.7350 12.42324568846087
Source of the keplerian elements: AFSPC